STARLINK-30507, 57982

Orbit data source: Space-Track

STARLINK-30507, 57982 is a payload satellite owned by SpaceX/Seattle (US) in LEO that was launched on Sat, 30 Sep 2023 UTC via an FALCON 9 launch vehicle from the Air Force Eastern Test Range (AFETR). Payload-class satellites include a variety of spacecraft equipped with specific instruments for various scientific and technological missions. These include communications satellites like Starlink; space stations such as the ISS; scientific satellites like the Hubble; Earth observation satellites from companies like Planet Labs, Umbra, and HawkEye 360; GPS; miniature CubeSats for education and research; and military/defense satellites.

Loading next visibility...
Identifier
57982, 2023-151U
Orbit
LEO
Country
Flag of USUS
Related business
Manufacturer
SpaceX/Seattle
Mission
Operational Commercial Communications
Bus & Motor
STARLINK V2M, Unknown motor
Mass
730 kg wet, ~700 kg dry
Launch date (UTC)
2023-09-30 (3 years ago)
Launch vehicle
FALCON 9
Launch site
Air Force Eastern Test Range (AFETR)
Object type
Payload
Rocket body
Debris
Shape & HBR
Box + 2 Pan, 17.7 m
Radar Cross Section
33.884 m², Large (>1 m²)

Expand to show TLE details & history
Last TLE update: 1 day ago

TLE from 1 day ago
0 STARLINK-30507
1 57982U 23151U   26236.00593026  .00007674  00000-0  28810-3 0  9993
2 57982  43.0034 129.0555 0001510 262.4328  97.6352 15.27580269161137
Epoch: 2026-08-24T00:08Z
TLE epoch observation values (Epoch: 2026-08-24T00:08:32.374Z)
Latitude
-0.00003°
Longitude
154.62674°
Altitude
482.962 km
Speed
7.626 km/s
True Right ascension
08h 36m 13s
True Declination
0° 00' 00"
Sunlit
Object was in daylight at epoch
Visualization orbit readout
Latitude
Unknown
Longitude
Unknown
Altitude
Unknown
Speed
Unknown
Apparent Right ascension
Unknown
Apparent Declination
Unknown
Sunlit
N/A
Visualization observer readout
Local Sidereal Time
02:29:43
Azimuth
Unknown
Elevation
Unknown
Doppler factor
Unknown
Orbital elements
Apogee altitude
486.029 km
Perigee altitude
483.957 km
Semi-major axis
6,863.13 km
Eccentricity
0.00015
Inclination
43.0034°
RAAN
129.0555°
Arg. of periapsis
262.4328°
True anomaly
97.65235°
Mean anomaly
97.6352°
Eccentric anomaly
97.64377°
Mean motion
3.81733 °/min
Orbital period
94.31 mins
BSTAR
0.0002881
Loading maneuver chart data...
Computing Atmospheric mass density...
Loading historical data...
Loading historical data...
Loading historical data...
Loading historical data...
Loading historical data...
Loading historical data...
Loading historical data...

Documentation

Showing up to 5 results
|